Temperature
13 14 14 15 15 16 16 16 16 16 16 16 15 16 16 17 17 17 17 17 16 16 15 15 15 14 14 14 13 12 12 12 11 11 10 11 11 11 11 10 10 10 10
12 12 13 14 14 15 15 16 16 16 16 16 15 15 16 16 16 17 17 17 17 17 16 16 15 15 14 13 13 12 12 12 12 11 10 9 10 11 11 11 11 10 10
11 11 11 12 13 14 14 15 15 15 15 15 15 15 15 14 14 15 16 16 17 16 16 16 15 14 14 13 13 13 13 12 12 11 10 10 11 10 11 11 11 10 10
10 10 11 11 12 13 13 14 14 15 15 15 15 14 14 13 14 14 15 15 15 15 15 15 14 14 13 13 13 13 13 12 11 11 11 11 11 11 11 11 11 10 10
10 10 10 11 12 12 13 13 13 14 14 14 14 14 14 13 13 13 13 14 14 14 14 14 14 13 13 13 13 13 12 12 11 11 11 11 10 11 11 11 11 11 10
9 9 10 11 11 12 12 12 13 13 13 13 13 13 13 13 13 13 13 13 13 13 13 13 13 13 12 12 12 12 12 12 11 11 11 11 11 10 10 10 10 10 10
9 9 9 10 10 11 11 12 12 12 12 12 13 13 13 13 13 13 13 13 12 12 13 13 13 12 12 12 12 11 11 11 11 10 11 11 10 10 10 10 9 9 9
9 8 8 9 9 10 10 10 11 11 11 11 12 12 12 12 12 12 12 12 12 12 12 12 12 12 11 11 11 11 10 10 10 10 10 10 10 9 9 9 9 8 7
8 8 8 8 8 8 8 9 9 10 10 10 11 11 11 11 11 12 12 12 12 12 11 11 11 11 10 10 10 10 10 9 9 10 10 9 9 9 8 8 7 7 6
8 7 7 7 7 7 7 8 8 8 9 9 9 10 10 10 11 11 11 11 11 11 11 11 10 10 10 10 9 9 9 9 9 9 9 9 8 7 7 6 6 5 4
7 6 6 6 6 6 7 7 7 7 8 8 8 8 9 9 9 10 10 10 10 10 10 10 10 9 9 9 9 9 9 9 9 9 8 8 7 6 5 5 4 3 3
6 5 5 5 5 6 6 6 6 7 7 7 7 8 8 8 8 8 9 9 9 9 9 9 9 9 9 9 9 9 8 8 8 8 7 6 5 4 3 3 3 2 2
5 5 4 4 5 5 5 5 6 6 6 6 6 7 7 7 7 7 7 8 8 8 8 8 8 8 8 8 8 8 7 7 7 6 5 4 3 3 2 2 1 1 1
4 4 4 4 4 4 4 4 5 5 5 5 5 6 6 6 6 6 6 6 7 7 7 7 7 7 7 6 6 6 6 5 4 3 3 2 2 1 1 1 1 0 -0
4 3 3 3 3 3 3 4 4 4 4 4 5 5 4 4 4 5 5 5 5 5 5 5 5 5 4 4 4 4 3 3 2 1 1 1 1 0 0 -0 -1 -1 -2
3 2 2 2 2 3 3 3 3 3 3 3 4 3 3 3 3 3 3 3 3 3 3 2 2 2 2 1 1 1 1 1 1 0 0 0 -0 -1 -1 -1 -2 -2 -3
3 2 2 2 2 2 2 2 2 2 2 2 2 2 2 2 2 2 2 1 1 1 1 0 0 -0 -0 -0 -0 -0 0 0 -0 -0 -1 -1 -1 -2 -2 -3 -3 -3 -4
3 2 2 1 1 1 1 1 1 1 1 1 1 1 1 1 1 1 0 0 -0 -0 -0 -0 -1 -1 -1 -1 -1 -1 -1 -1 -1 -2 -2 -2 -3 -3 -3 -4 -4 -5 -5
3 2 2 1 1 1 1 1 1 1 1 1 1 0 0 0 0 0 -0 -0 -0 -1 -1 -1 -1 -1 -1 -1 -1 -2 -2 -2 -2 -3 -3 -3 -4 -4 -5 -5 -5 -6 -7
3 2 2 2 1 1 1 1 1 1 1 0 0 0 0 0 0 -0 -0 -1 -1 -1 -1 -1 -1 -2 -2 -2 -3 -3 -3 -3 -4 -4 -4 -4 -5 -6 -6 -7 -7 -7 -7
3 3 2 2 2 1 1 1 1 0 0 0 0 0 0 0 -0 -0 -0 -1 -1 -1 -1 -1 -2 -2 -3 -4 -3 -4 -4 -5 -5 -5 -6 -6 -6 -7 -7 -8 -8 -7 -7
3 3 3 2 2 1 1 1 1 0 0 0 0 0 -0 -0 -0 -1 -1 -1 -1 -1 -2 -2 -3 -3 -4 -4 -5 -5 -5 -6 -6 -7 -7 -7 -7 -7 -7 -7 -7 -7 -7
3 3 3 2 2 1 1 1 1 0 0 0 0 -0 -0 -0 -1 -1 -1 -1 -2 -2 -3 -3 -4 -4 -5 -5 -5 -6 -6 -6 -7 -7 -7 -7 -7 -7 -7 -7 -7 -7 -7
4 3 3 2 2 2 1 1 1 0 0 0 -0 -0 -0 -1 -1 -1 -1 -2 -2 -3 -3 -4 -4 -5 -6 -6 -7 -7 -7 -7 -7 -7 -7 -7 -7 -7 -7 -7 -7 -7 -7
4 3 3 3 2 2 1 1 1 0 0 -0 -0 -0 -1 -1 -1 -2 -2 -2 -3 -3 -4 -5 -5 -6 -7 -7 -8 -8 -8 -8 -8 -8 -8 -8 -8 -8 -8 -8 -8 -8 -8
4 3 3 3 2 2 1 1 1 0 -0 -0 -0 -1 -1 -1 -2 -2 -3 -3 -3 -4 -5 -5 -6 -7 -7 -7 -8 -8 -8 -8 -8 -8 -8 -8 -8 -8 -8 -8 -8 -8 -8
Wind_Speed
6 5 5 5 5 5 7 9 10 11 11 11 12 13 14 14 13 14 18 19 19 19 18 14 15 15 15 15 16 13 13 10 9 6 6 6 8 9 9 10 10 12 13
2 3 4 3 4 5 6 7 8 9 11 11 11 12 13 12 14 13 15 19 20 20 17 18 16 16 15 17 17 16 12 10 10 9 6 6 8 9 11 10 10 11 12
4 5 5 5 5 5 5 6 7 8 9 10 10 10 11 11 12 14 15 18 20 20 19 18 17 16 16 16 18 19 18 13 13 12 9 6 9 6 8 12 11 12 11
6 6 6 7 7 7 6 6 6 6 7 8 9 12 13 14 16 15 14 16 18 18 19 18 17 17 15 17 17 19 17 17 13 11 12 9 5 6 6 7 10 11 11
6 7 7 7 7 7 7 6 6 5 5 6 8 10 12 13 13 14 16 16 15 17 17 18 17 17 16 17 17 18 19 17 16 12 9 11 6 7 6 5 6 8 9
6 6 7 7 7 8 8 8 8 7 6 5 6 8 11 13 14 15 14 14 13 14 17 17 17 17 16 17 18 17 19 18 18 15 11 9 8 10 9 8 5 5 6
6 7 8 9 9 10 10 9 9 9 8 8 7 7 9 11 13 14 14 14 13 13 15 15 16 15 16 16 15 15 16 18 18 15 12 11 9 5 7 7 4 3 3
5 7 8 9 9 10 10 10 10 10 10 9 9 8 8 8 9 11 12 13 12 13 14 14 15 15 15 13 12 11 12 12 13 12 10 7 5 4 4 4 5 4 3
5 6 7 8 9 9 10 10 10 10 10 10 10 9 9 8 9 10 11 10 11 10 12 12 13 13 12 12 11 9 10 9 9 8 7 5 3 3 3 3 3 6 5
5 6 7 8 8 8 9 9 9 9 10 10 9 8 9 9 9 8 9 9 9 9 9 10 10 9 9 9 9 8 9 10 8 7 9 7 6 5 5 5 4 3 3
6 6 7 7 8 8 8 9 9 9 9 10 9 9 9 9 8 7 7 7 6 6 6 5 6 6 7 8 9 9 10 11 9 9 10 9 9 7 6 6 5 4 3
4 5 6 7 8 9 9 9 9 9 10 9 9 9 9 9 8 8 7 6 5 4 2 1 2 4 6 7 9 10 11 11 11 11 11 11 9 9 7 6 5 4 3
4 5 6 7 8 8 9 9 9 9 9 9 9 9 10 10 10 10 9 8 7 6 5 4 5 5 6 7 8 10 11 11 11 11 11 11 10 9 6 6 5 4 3
3 5 5 6 7 7 8 8 9 9 9 9 10 10 11 11 10 10 10 10 10 10 9 9 9 9 9 9 10 11 12 12 11 10 10 9 8 8 7 5 5 4 3
3 4 5 6 6 7 7 8 8 9 9 9 10 10 10 10 10 11 11 11 12 12 11 11 11 11 10 10 11 11 12 13 12 11 10 8 9 9 5 4 3 3 2
2 3 4 5 6 6 7 7 8 8 8 9 9 9 9 10 10 11 11 12 12 12 12 12 12 11 10 16 17 14 12 12 11 10 9 8 7 7 5 3 2 3 4
0 1 3 4 5 5 6 6 7 7 8 9 9 9 9 10 10 10 11 12 11 12 12 12 13 13 15 19 19 17 12 11 10 9 7 5 5 4 1 0 2 3 4
1 1 2 3 3 4 5 5 6 7 8 9 9 8 9 9 10 11 11 11 11 11 11 12 13 13 15 19 18 17 11 10 8 7 5 4 3 1 1 2 3 4 4
2 2 2 2 3 4 4 5 6 7 8 8 8 8 8 9 9 10 10 9 10 11 10 10 11 11 12 14 13 11 7 7 6 5 4 2 1 1 4 4 4 5 5
3 3 3 3 4 4 4 5 6 7 8 7 7 7 8 9 9 9 9 9 9 9 9 10 9 9 9 10 9 7 4 5 4 3 2 2 3 4 5 4 4 6 7
4 4 4 4 4 4 5 6 6 6 6 6 7 8 8 8 8 8 8 8 8 8 8 8 7 7 8 8 8 6 3 3 2 1 2 2 4 6 6 5 5 7 9
6 5 5 4 4 4 5 6 6 5 5 6 7 7 7 7 6 7 7 7 7 7 6 6 6 5 6 6 6 6 5 4 2 2 2 3 5 7 7 6 7 9 8
7 6 6 6 5 5 5 7 5 5 6 7 7 7 7 7 6 6 6 5 5 4 4 3 3 3 3 4 5 5 5 5 4 3 4 6 7 7 5 4 6 6 5
8 8 8 7 6 5 5 6 6 6 7 7 7 6 6 6 6 5 4 4 3 3 2 2 2 2 1 2 2 3 3 4 3 3 3 5 5 4 5 5 4 4 4
9 8 8 8 8 7 6 6 7 7 7 7 6 5 5 5 5 5 4 4 3 3 2 1 1 1 2 3 5 5 4 5 5 4 4 4 4 3 3 3 3 4 4
10 9 9 9 8 8 7 7 7 7 7 6 5 4 4 4 4 4 4 5 5 5 4 2 1 2 3 4 5 6 6 6 6 4 4 4 4 4 4 5 5 5 5
Wind_Direction
287 301 304 299 285 271 260 254 250 245 241 235 229 227 228 229 230 230 232 231 229 224 221 222 219 212 211 211 208 204 203 202 187 184 202 215 220 220 213 212 209 204 202
351 360 350 337 315 295 283 270 260 255 247 241 238 237 236 235 233 231 232 231 230 226 221 222 220 214 214 213 210 204 204 198 190 196 200 217 214 220 218 213 213 210 203
32 27 25 21 7 347 323 298 283 272 262 256 248 245 242 241 238 235 233 230 228 227 223 223 224 218 216 215 211 206 205 203 201 205 201 208 222 195 198 214 212 211 207
38 31 24 21 13 1 346 327 310 290 277 265 250 243 238 238 238 238 239 237 231 228 226 225 225 223 219 220 215 211 213 210 203 208 224 235 241 192 184 199 212 213 213
28 24 17 8 4 359 352 345 337 324 307 280 259 252 248 249 251 250 248 245 238 231 227 224 225 225 222 222 219 214 214 214 210 202 203 216 225 231 214 196 189 204 212
18 15 10 3 0 358 353 347 341 338 333 315 285 261 257 255 254 252 251 249 245 237 231 225 225 225 224 223 223 218 216 217 218 211 204 201 202 210 215 216 188 189 189
5 4 1 357 353 351 348 342 338 333 332 325 311 291 274 266 260 258 255 253 250 244 236 227 227 226 226 225 223 220 218 218 220 218 214 217 219 205 204 205 177 159 146
359 359 356 350 347 345 343 340 335 330 329 326 320 309 292 277 268 264 261 259 256 253 248 236 231 229 226 222 218 219 217 215 217 220 214 207 206 192 191 179 160 149 150
354 353 352 351 347 345 343 339 333 330 331 329 324 317 310 295 284 278 271 266 264 264 258 246 234 228 222 214 206 209 206 201 202 196 182 168 149 132 119 119 148 158 173
353 355 354 353 350 347 345 345 343 338 335 334 331 326 321 314 304 293 282 275 273 269 262 253 240 226 214 200 191 188 185 181 176 165 158 148 138 122 111 106 89 92 139
352 353 353 353 352 354 355 356 354 350 347 344 341 339 337 333 328 321 313 305 297 286 269 254 233 210 193 182 175 171 166 165 157 153 150 140 131 122 111 104 102 98 108
353 355 356 359 2 2 2 2 0 358 356 353 355 359 357 357 360 358 354 350 345 342 329 285 176 161 159 160 159 156 154 152 148 144 137 132 127 118 117 116 114 115 110
358 3 6 8 7 4 4 5 6 4 4 7 12 16 18 18 19 18 17 21 27 35 44 64 90 105 116 125 132 134 133 132 132 133 132 132 129 125 123 120 120 120 124
3 7 8 11 10 7 7 8 11 11 14 21 26 27 26 27 30 34 36 40 46 52 57 63 71 80 90 99 107 112 113 112 110 110 113 117 120 123 125 122 125 134 156
1 9 10 11 11 11 13 15 17 19 23 32 35 33 32 37 42 47 50 53 56 60 64 69 71 74 81 91 98 100 104 104 100 95 92 95 105 116 120 130 148 169 200
355 12 16 16 15 15 16 21 23 26 34 42 42 39 41 46 50 53 57 60 62 66 68 70 74 76 84 94 95 96 93 94 96 94 90 91 91 99 104 124 183 216 236
43 27 25 24 20 20 21 27 30 38 47 51 49 47 50 54 54 57 60 62 64 69 73 74 77 79 84 88 89 89 87 86 87 91 97 99 99 93 95 160 257 257 269
152 98 51 42 35 34 37 44 49 52 56 57 55 53 57 61 61 63 64 63 63 65 67 70 75 78 79 83 85 87 84 87 90 94 101 110 119 116 268 263 267 268 266
136 117 89 70 61 55 58 67 66 64 63 60 58 57 62 66 65 65 64 65 69 68 67 68 74 81 84 87 91 92 94 98 100 101 97 80 37 314 286 281 278 286 284
142 134 119 101 86 76 82 84 76 72 65 62 63 63 67 71 71 71 71 73 76 77 78 73 73 84 94 97 96 91 93 97 98 92 67 25 341 323 316 304 289 291 300
148 141 128 111 98 98 102 95 85 75 71 75 76 74 75 78 81 81 78 82 85 85 83 81 73 72 81 89 83 70 61 61 51 19 358 359 331 323 327 317 296 297 301
158 149 136 124 118 121 119 107 95 92 94 93 88 83 82 83 84 88 86 87 92 91 89 87 80 68 65 64 67 56 46 25 358 339 334 333 328 328 324 311 303 301 300
165 159 151 143 137 137 136 127 126 126 119 108 98 92 88 84 86 91 93 91 88 89 89 87 83 72 58 57 48 33 19 6 343 336 341 335 330 320 306 300 305 302 289
172 166 163 160 154 149 144 139 141 140 129 116 108 105 101 95 89 86 85 87 85 87 87 83 78 68 44 15 355 345 340 335 325 314 315 316 313 301 297 300 291 285 288
175 174 175 169 162 158 152 150 152 149 137 126 121 116 109 108 98 86 76 77 69 49 60 66 41 347 332 349 345 336 332 332 330 316 304 308 313 312 310 302 295 290 283
176 176 176 171 166 164 161 160 161 160 148 140 140 135 130 124 120 116 104 76 73 79 67 42 333 310 323 337 335 333 334 328 329 307 300 306 309 312 312 309 307 301 290
Height
1503 1502 1502 1502 1502 1503 1504 1505 1506 1508 1509 1510 1510 1510 1510 1511 1512 1513 1514 1515 1516 1517 1518 1519 1521 1521 1522 1524 1526 1528 1529 1531 1533 1535 1535 1535 1536 1536 1536 1536 1537 1537 1537
1500 1499 1498 1497 1498 1498 1498 1499 1500 1501 1502 1503 1503 1504 1505 1505 1506 1506 1507 1508 1509 1510 1511 1512 1513 1514 1515 1517 1518 1520 1522 1524 1526 1529 1530 1531 1531 1529 1530 1530 1531 1532 1532
1498 1497 1496 1494 1494 1493 1493 1493 1494 1494 1495 1496 1497 1497 1497 1497 1498 1498 1499 1500 1501 1502 1503 1504 1505 1506 1508 1509 1510 1512 1514 1516 1518 1521 1524 1524 1524 1523 1523 1523 1524 1525 1526
1497 1496 1494 1493 1491 1490 1490 1489 1489 1489 1489 1489 1489 1490 1490 1490 1490 1492 1492 1493 1494 1494 1495 1496 1497 1499 1500 1501 1503 1505 1506 1509 1510 1512 1514 1517 1517 1517 1516 1517 1518 1519 1520
1496 1495 1493 1491 1490 1488 1487 1486 1485 1485 1484 1484 1484 1484 1483 1484 1485 1485 1485 1486 1486 1486 1487 1488 1489 1490 1491 1493 1495 1496 1498 1500 1502 1502 1505 1507 1509 1510 1512 1511 1511 1512 1513
1495 1494 1492 1490 1488 1486 1485 1483 1482 1481 1480 1479 1478 1478 1477 1478 1478 1478 1478 1478 1478 1478 1479 1480 1480 1481 1483 1484 1486 1488 1489 1491 1494 1495 1496 1498 1499 1500 1503 1505 1504 1505 1506
1494 1492 1490 1487 1485 1483 1482 1480 1479 1478 1476 1475 1474 1473 1472 1471 1471 1471 1471 1471 1471 1471 1471 1472 1472 1473 1474 1476 1478 1479 1480 1482 1485 1487 1488 1490 1492 1493 1495 1497 1497 1498 1498
1492 1490 1487 1485 1482 1480 1478 1476 1475 1473 1472 1470 1469 1468 1467 1465 1465 1464 1464 1464 1463 1463 1464 1464 1464 1465 1467 1468 1470 1471 1472 1474 1476 1478 1480 1482 1483 1485 1487 1489 1490 1490 1491
1490 1488 1485 1482 1479 1477 1474 1472 1470 1469 1467 1465 1464 1463 1461 1460 1459 1458 1457 1456 1456 1456 1457 1457 1457 1458 1459 1460 1462 1463 1465 1467 1468 1470 1473 1474 1475 1477 1478 1480 1482 1485 1484
1487 1485 1482 1479 1476 1474 1471 1469 1467 1465 1463 1461 1459 1458 1456 1454 1453 1452 1451 1450 1450 1449 1449 1450 1450 1451 1452 1453 1454 1456 1457 1459 1461 1463 1465 1466 1467 1469 1471 1473 1475 1477 1479
1484 1481 1479 1476 1473 1471 1469 1466 1464 1462 1460 1458 1456 1454 1452 1450 1448 1447 1445 1444 1444 1443 1443 1443 1444 1444 1445 1446 1447 1449 1450 1452 1454 1455 1457 1459 1461 1463 1465 1467 1470 1472 1474
1481 1478 1476 1473 1471 1469 1466 1464 1462 1459 1457 1455 1452 1450 1448 1446 1444 1443 1441 1440 1439 1438 1438 1438 1438 1438 1439 1440 1441 1442 1444 1446 1448 1449 1451 1453 1456 1458 1461 1464 1466 1468 1470
1478 1476 1474 1471 1469 1467 1464 1462 1460 1457 1455 1452 1450 1448 1446 1443 1441 1440 1438 1437 1435 1435 1434 1434 1434 1434 1434 1435 1436 1438 1439 1441 1443 1445 1448 1450 1453 1456 1458 1461 1463 1464 1466
1475 1473 1471 1469 1467 1465 1463 1461 1458 1456 1453 1451 1449 1446 1444 1442 1439 1438 1436 1434 1433 1432 1432 1431 1431 1431 1431 1432 1433 1434 1436 1438 1441 1443 1446 1449 1452 1455 1457 1458 1459 1460 1461
1473 1471 1469 1467 1466 1464 1462 1459 1457 1455 1452 1450 1448 1446 1443 1441 1439 1437 1435 1433 1432 1431 1431 1430 1430 1430 1430 1431 1432 1433 1435 1437 1440 1443 1447 1449 1451 1453 1455 1456 1456 1457 1457
1470 1468 1467 1465 1464 1462 1460 1458 1456 1454 1452 1450 1448 1446 1444 1442 1439 1437 1436 1434 1433 1432 1432 1431 1432 1432 1432 1433 1434 1436 1437 1440 1442 1445 1447 1449 1450 1451 1452 1453 1453 1454 1454
1467 1466 1465 1464 1462 1461 1459 1458 1456 1454 1453 1451 1449 1447 1446 1443 1441 1440 1438 1437 1436 1436 1435 1436 1436 1436 1437 1438 1439 1440 1441 1443 1444 1446 1447 1448 1449 1449 1450 1450 1450 1450 1450
1465 1464 1463 1462 1461 1460 1459 1458 1456 1455 1453 1452 1451 1450 1448 1446 1445 1444 1442 1441 1441 1441 1440 1441 1441 1441 1442 1442 1443 1444 1444 1445 1446 1447 1447 1448 1448 1448 1448 1448 1447 1447 1446
1463 1462 1462 1461 1460 1460 1459 1458 1457 1456 1455 1454 1453 1452 1451 1450 1449 1448 1447 1447 1446 1446 1446 1446 1446 1446 1446 1446 1446 1447 1447 1447 1447 1447 1447 1447 1446 1446 1445 1445 1444 1444 1443
1461 1461 1460 1460 1460 1460 1459 1459 1458 1458 1457 1456 1456 1455 1455 1454 1453 1452 1452 1451 1451 1451 1450 1450 1450 1449 1449 1448 1448 1448 1448 1448 1447 1446 1446 1445 1444 1443 1443 1442 1442 1441 1440
1460 1460 1460 1460 1460 1460 1460 1460 1460 1459 1459 1459 1459 1458 1458 1457 1457 1456 1455 1455 1455 1454 1454 1453 1452 1452 1451 1450 1450 1449 1448 1447 1446 1445 1444 1443 1442 1441 1440 1439 1439 1438 1436
1459 1459 1460 1460 1461 1461 1462 1462 1461 1462 1461 1461 1461 1461 1460 1460 1459 1459 1458 1458 1457 1457 1456 1455 1454 1453 1452 1451 1450 1449 1447 1446 1445 1444 1442 1441 1440 1439 1437 1436 1435 1434 1433
1458 1459 1460 1461 1461 1462 1463 1463 1463 1463 1463 1464 1463 1463 1462 1462 1462 1461 1460 1460 1459 1458 1457 1456 1455 1454 1452 1451 1449 1448 1446 1445 1443 1442 1440 1439 1437 1436 1435 1433 1432 1431 1430
1457 1458 1459 1461 1461 1462 1463 1464 1464 1465 1465 1465 1465 1464 1464 1464 1463 1462 1462 1461 1460 1459 1457 1456 1455 1453 1452 1450 1449 1447 1445 1443 1441 1440 1438 1436 1435 1433 1432 1431 1430 1429 1428
1456 1457 1459 1460 1461 1462 1463 1464 1464 1465 1466 1466 1466 1465 1465 1464 1464 1463 1462 1461 1460 1459 1458 1456 1454 1453 1451 1449 1447 1445 1443 1441 1440 1438 1436 1434 1433 1432 1430 1429 1427 1426 1425
1453 1455 1457 1459 1460 1461 1462 1463 1464 1465 1466 1466 1466 1466 1465 1465 1464 1463 1462 1460 1459 1457 1456 1454 1453 1450 1449 1447 1445 1443 1441 1439 1437 1435 1434 1432 1431 1429 1428 1427 1425 1424 1422